Home   Weather   Sedona   Past weeks

Flag for USA Past Weather in Sedona, Arizona, USA — Yesterday and Last 2 Weeks

Now
37 °F

Mostly cloudy.


Feels Like: 37 °F
Forecast: 34 / 39 °F
Wind: No wind

Location: Sedona Airport

Current Time: Jan 23, 2017 at 1:39:22 am

Latest Report: Jan 23, 2017 at 12:55 am


Visibility: 10 mi

Pressure: 30.04 "Hg (25.63 "Hg at 1282m altitude)

Humidity: 87%

Dew Point: 34 °F

Location of SedonaLocation

Past Weather in Sedona — Graph

°F

Sedona Temperature Yesterday

Maximum temperature yesterday: 41 °F (at 11:15 pm)
Minimum temperature yesterday: 32 °F (at 4:15 am)
Average temperature yesterday: 36 °F

High & Low Weather Summary for the Past Weeks

 TemperatureHumidityPressure
High59 °F (Jan 8, 1:55 pm)100% (Jan 15, 10:15 pm)30.45 "Hg (Jan 15, 10:15 pm)
Low32 °F (Jan 20, 8:55 pm)34% (Jan 11, 2:15 am)29.39 "Hg (Jan 21, 12:55 am)
Average43 °F74%30.03 "Hg
* Reported Jan 8 12:35 am — Jan 23 12:15 am, Sedona, Weather by CustomWeather, © 2017

Note: Actual official high and low records may vary slightly from our data, if they occured in-between our weather recording intervals... More about our weather records

Advertising

Sedona Weather History for the Previous 24 Hours

Scroll right to see more
 ConditionsComfort  
Time TempWeatherWind HumidityBarometerVisibility
12:15 am
Mon, Jan 23
37 °FMostly cloudy.7 mph81%30.07 "Hg10 mi
11:55 pm
Sun, Jan 22
37 °FLight rain. Mostly cloudy.No wind81%30.09 "Hg10 mi
11:15 pm41 °FLight rain. Mostly cloudy.5 mph70%30.10 "Hg10 mi
10:35 pm39 °FMostly cloudy.No wind75%30.10 "Hg10 mi
9:55 pm39 °FOvercast.No wind75%30.09 "Hg10 mi
9:15 pm37 °FOvercast.No wind87%30.09 "Hg10 mi
8:55 pm37 °FMostly cloudy.No wind87%30.09 "Hg10 mi
8:15 pm37 °FOvercast.3 mph87%30.09 "Hg10 mi
7:55 pm37 °FOvercast.No wind87%30.09 "Hg10 mi
7:15 pm39 °FOvercast.No wind81%30.10 "Hg10 mi
6:55 pm37 °FMostly cloudy.No wind87%30.10 "Hg10 mi
6:35 pm37 °FMostly cloudy.3 mph87%30.10 "Hg10 mi
5:55 pm37 °FMostly cloudy.No wind93%30.10 "Hg10 mi
5:15 pm37 °FMostly cloudy.No wind93%30.10 "Hg10 mi
4:55 pm37 °FOvercast.No wind93%30.11 "Hg10 mi
4:15 pm37 °FOvercast.No wind87%30.11 "Hg10 mi
3:55 pm37 °FMore clouds than sun.No wind93%30.11 "Hg10 mi
3:35 pm37 °FMore clouds than sun.No wind87%30.13 "Hg10 mi
2:55 pm37 °FLight rain. Cloudy.No wind87%30.13 "Hg10 mi
2:35 pm36 °FLight rain. Cloudy.No wind93%30.13 "Hg10 mi
1:55 pm36 °FLight rain. More clouds than sun.5 mph93%30.14 "Hg10 mi
1:15 pm36 °FRain. Cloudy.No wind87%30.17 "Hg5 mi
12:55 pm36 °FLight rain. Mostly cloudy.No wind87%30.18 "Hg10 mi
12:15 pm37 °FLight rain. Cloudy.No wind81%30.19 "Hg10 mi
11:55 am37 °FMostly cloudy.No wind81%30.20 "Hg10 mi
11:35 am37 °FCloudy.No wind87%30.20 "Hg10 mi
10:55 am36 °FCloudy.No wind87%30.21 "Hg10 mi
10:15 am36 °FCloudy.7 mph87%30.21 "Hg10 mi
9:55 am34 °FLight rain. Mostly cloudy.3 mph93%30.21 "Hg5 mi
9:15 am36 °FLight rain. Mostly cloudy.No wind81%30.21 "Hg7 mi
8:55 am36 °FCloudy.No wind81%30.21 "Hg10 mi
8:15 am36 °FOvercast.No wind81%30.18 "Hg10 mi
7:35 am34 °FOvercast.No wind87%30.16 "Hg10 mi
6:55 am34 °FPartly cloudy.No wind87%30.17 "Hg10 mi
6:35 am34 °FPassing clouds.No wind87%30.15 "Hg10 mi
5:55 am32 °FClear.5 mph93%30.14 "Hg10 mi
5:15 am34 °FPassing clouds.No wind87%30.14 "Hg10 mi
4:55 am32 °FPassing clouds.No wind93%30.15 "Hg10 mi
4:15 am32 °FPassing clouds.No wind93%30.14 "Hg10 mi
3:55 am34 °FPassing clouds.No wind87%30.13 "Hg10 mi
3:15 am34 °FClear.5 mph87%30.10 "Hg10 mi
2:55 am34 °FClear.7 mph87%30.10 "Hg10 mi
2:15 am34 °FClear.No wind87%30.10 "Hg10 mi
1:55 am34 °FClear.6 mph87%30.10 "Hg10 mi
1:15 am34 °FClear.No wind87%30.10 "Hg10 mi
Weather by CustomWeather, © 2017

See weather overviewHow to use our weather pages